Wind_Speed
24 23 24 23 22 22 22 21 20 19 18 17 16 17 17 17 16 16 15 15 14 14 14 14 14 15 15 15 16 16 16 16 17 17 17 18 18 19 19 20 21 22 22
25 25 24 25 24 24 24 23 21 20 20 20 19 18 19 18 18 17 17 16 16 16 16 16 16 17 17 17 17 17 18 18 19 19 20 21 21 22 22 22 23 24 25
26 26 27 26 26 25 25 25 24 22 20 21 21 21 20 19 19 18 18 19 18 18 19 18 18 18 19 18 19 19 19 20 21 21 22 23 23 24 25 26 27 28 29
29 28 29 28 27 27 26 26 25 24 23 22 22 22 21 21 21 20 20 20 20 20 20 20 20 20 20 20 21 21 21 22 23 24 24 25 26 27 28 28 29 30 32
30 31 31 30 28 27 27 26 26 26 25 24 24 23 22 22 23 22 21 21 21 21 21 21 21 21 22 22 22 23 23 24 25 26 27 28 29 29 30 31 32 33 35
31 31 31 31 30 29 28 27 26 26 27 25 25 24 24 24 23 23 23 23 23 23 23 23 22 23 23 24 25 25 26 26 27 29 29 30 31 32 32 33 34 36 37
32 30 30 30 30 30 30 28 26 27 27 27 26 26 26 26 25 24 24 25 24 24 25 25 25 25 25 26 27 27 28 29 30 31 31 32 33 34 35 35 36 37 38
31 29 29 30 31 30 29 29 28 28 26 26 26 27 27 27 26 26 26 26 26 27 27 27 27 27 27 27 28 29 30 31 31 32 33 33 34 35 36 37 38 39 40
31 31 27 27 29 28 28 27 27 28 28 27 26 26 25 25 27 26 26 26 27 28 28 28 29 29 29 30 31 31 32 32 32 32 33 34 35 36 38 39 40 41 42
31 30 29 27 27 28 28 27 26 28 28 27 28 27 26 26 27 26 27 27 28 29 29 30 30 30 30 31 31 31 32 32 33 33 34 35 36 37 39 40 41 42 43
28 28 26 26 27 27 29 28 27 28 29 29 29 28 28 27 27 27 27 28 29 30 30 31 31 32 32 31 31 31 31 32 33 34 35 36 37 39 40 41 43 43 44
26 27 27 27 27 27 26 27 26 27 28 28 28 27 27 27 27 28 29 30 30 30 31 30 31 31 31 31 31 31 32 33 34 35 36 38 39 40 41 43 43 44 45
25 26 25 25 26 26 25 25 26 26 27 27 27 26 27 27 28 29 29 30 31 31 31 31 31 31 31 31 31 32 33 34 35 36 37 39 40 41 42 43 43 44 44
23 23 22 22 23 24 24 24 25 25 25 26 26 26 27 28 29 29 29 29 31 31 31 31 31 30 31 31 32 33 33 34 36 37 38 40 41 41 42 43 43 43 43
22 21 21 22 22 22 23 23 24 24 25 25 26 28 29 29 29 30 30 29 30 30 30 29 29 29 30 31 32 33 34 35 37 38 39 40 41 41 42 42 42 42 41
22 22 22 22 22 23 23 23 23 24 25 26 26 27 28 29 28 29 28 28 28 28 28 27 28 29 29 30 32 33 35 36 37 38 39 39 40 40 41 40 40 38 37
22 23 23 22 22 23 23 24 24 24 24 25 25 25 26 27 27 26 26 25 25 26 27 27 28 29 29 31 33 34 35 36 37 37 38 38 39 39 38 37 35 35 34
23 23 24 24 23 23 23 24 24 24 24 24 24 24 24 25 24 24 25 25 25 26 27 28 29 30 31 33 34 35 36 36 37 38 38 38 37 36 35 33 33 32 31
23 23 24 24 24 24 24 23 23 24 24 24 24 23 23 23 23 24 25 25 26 27 28 29 30 32 33 34 35 36 36 37 37 37 36 36 34 33 32 31 30 30 29
23 23 23 23 23 23 23 23 23 23 23 23 23 22 23 23 24 25 26 26 27 28 29 30 31 32 34 34 35 35 35 35 35 35 34 33 31 30 29 28 28 27 27
22 23 22 22 22 22 22 22 22 22 23 23 23 23 23 24 25 26 27 28 28 29 30 31 32 32 33 33 33 34 34 33 33 32 31 29 28 26 26 26 25 24 24
21 22 23 23 22 22 22 21 21 21 22 23 23 23 24 25 26 27 28 28 29 29 30 31 31 32 32 32 31 31 31 30 29 28 27 26 24 24 23 23 22 22 21
20 21 21 21 22 21 21 21 21 21 21 22 23 24 25 26 26 27 28 28 29 29 30 30 30 30 30 30 29 28 28 26 25 24 23 22 22 21 21 21 20 19 18
19 19 19 20 20 20 20 21 21 21 22 22 22 23 24 25 26 27 28 28 28 28 28 28 28 28 27 26 25 25 24 23 22 21 21 21 20 19 19 18 17 16 16
18 17 17 19 19 20 20 20 21 21 21 22 22 23 24 25 26 27 27 27 27 26 26 26 26 25 24 24 23 22 21 21 20 20 19 19 18 17 16 15 15 14 14
16 17 18 18 18 19 20 20 20 19 20 21 22 23 24 25 25 26 25 25 24 24 23 23 23 23 22 22 21 20 20 19 19 18 17 16 15 15 14 14 13 13 13
Wind_Direction
255 254 253 255 255 254 253 254 255 256 255 254 253 254 254 253 253 255 257 261 263 264 267 271 276 280 280 282 284 286 286 286 288 289 291 291 292 293 290 288 288 288 287
254 255 253 252 254 253 253 252 252 255 256 255 253 253 252 251 253 255 256 260 262 264 267 269 273 277 279 281 283 284 284 285 286 287 288 289 290 291 290 287 287 286 286
255 255 255 252 253 252 253 252 251 254 256 256 252 252 250 251 251 252 256 259 262 266 268 269 273 276 277 280 281 282 283 285 286 286 287 288 289 290 289 288 287 286 285
255 257 256 254 254 253 253 254 253 252 252 254 251 249 250 250 250 252 255 259 263 266 268 269 272 275 277 279 279 281 282 284 285 286 286 287 288 289 288 287 287 286 286
256 257 255 254 254 254 254 255 253 251 250 250 247 247 248 248 249 250 254 257 261 264 267 270 273 274 276 278 279 280 282 283 285 286 287 288 288 288 287 287 287 286 286
257 258 253 251 251 254 252 252 252 248 247 247 246 246 246 247 247 250 252 257 261 263 266 269 271 273 275 278 279 280 282 283 285 286 287 287 287 287 287 287 287 287 287
258 258 253 252 251 253 250 250 247 247 245 244 245 244 245 244 248 251 253 257 261 263 266 267 269 272 274 277 280 282 283 284 286 287 287 287 287 287 287 288 288 288 288
254 255 251 248 249 249 247 246 245 245 244 243 242 242 244 246 250 252 254 258 261 264 266 267 269 272 274 276 280 282 284 285 286 287 287 287 287 288 289 289 289 289 289
254 254 252 249 247 246 248 247 246 245 244 241 239 241 245 250 252 255 256 258 262 266 268 270 271 271 274 278 281 282 284 285 286 287 288 289 289 289 290 290 290 290 290
253 255 252 252 249 246 246 247 247 244 243 242 241 242 245 251 255 257 258 261 265 268 270 272 273 274 276 279 282 283 284 286 286 287 290 290 290 291 291 291 291 291 291
252 250 249 248 247 244 244 246 245 243 241 243 244 245 248 253 257 258 261 264 267 269 270 272 274 275 277 280 282 284 285 287 288 289 290 291 291 292 292 292 292 292 292
251 248 248 247 247 244 242 240 240 240 240 240 241 244 250 254 258 260 263 266 268 269 271 272 275 276 277 280 283 285 286 288 290 290 291 292 292 293 293 293 294 293 294
248 246 244 244 243 240 241 240 239 238 239 240 242 245 250 254 258 260 264 266 266 267 269 271 273 275 277 281 284 287 288 289 290 291 292 292 293 294 294 295 295 295 296
246 242 240 240 239 237 237 237 238 238 238 242 245 247 250 255 259 260 264 265 264 266 269 272 274 276 279 282 285 287 288 290 290 292 293 293 294 295 295 296 297 297 298
242 239 238 238 236 234 235 237 238 239 239 240 243 247 251 255 258 260 262 265 265 268 271 274 277 279 282 284 285 286 288 289 291 292 293 295 296 296 297 298 298 298 298
241 239 236 235 236 236 237 238 240 243 242 243 246 249 252 254 256 259 261 263 266 269 273 276 277 281 283 285 286 288 289 291 292 294 296 297 298 298 298 298 299 299 299
238 238 237 237 238 240 240 241 242 243 243 246 250 252 254 256 255 258 262 264 267 271 275 277 279 282 284 286 288 289 291 292 294 296 298 298 299 299 299 299 300 300 301
238 238 237 236 237 239 240 241 242 243 244 246 249 252 255 256 256 259 264 268 271 274 276 279 282 283 286 288 289 290 292 293 295 296 297 298 299 299 299 299 300 302 303
238 238 235 235 235 236 240 241 241 244 247 249 251 255 257 256 259 263 268 271 273 276 279 281 282 284 286 289 290 291 293 295 296 297 298 299 299 299 299 300 301 303 303
235 233 231 234 236 237 239 240 243 247 250 252 253 255 256 258 263 267 270 273 275 278 280 282 284 286 288 290 291 292 294 295 297 299 299 299 298 298 299 300 302 303 305
231 232 232 233 237 239 239 240 244 248 251 253 254 257 260 264 266 269 272 274 277 279 281 283 285 288 289 290 291 293 295 297 298 299 299 298 298 299 300 302 303 305 307
231 231 232 234 237 240 243 243 246 250 253 255 257 259 263 268 269 271 274 276 278 280 282 285 287 288 289 291 292 295 296 298 299 299 298 298 299 300 302 304 306 307 308
233 230 232 235 236 240 243 245 250 253 255 257 259 262 264 268 270 273 275 278 280 282 284 286 287 289 291 292 294 296 298 298 299 299 298 299 300 302 304 306 308 309 310
235 233 233 234 237 242 245 248 252 256 259 262 262 264 268 270 272 274 277 279 281 283 285 286 288 291 292 293 294 296 297 298 298 299 299 300 302 304 306 307 309 310 313
236 233 237 239 243 248 251 252 255 258 262 263 266 269 270 273 274 276 278 279 281 283 285 288 290 291 292 293 294 296 297 297 299 299 299 301 303 305 307 308 311 314 317
239 241 244 245 249 251 252 254 256 259 263 265 269 272 273 275 278 281 282 282 283 286 288 291 292 292 292 293 294 295 296 297 298 299 299 300 302 305 307 309 313 317 320
Height
5862 5864 5865 5866 5867 5868 5869 5871 5872 5874 5875 5876 5877 5879 5880 5881 5881 5882 5883 5883 5884 5884 5884 5885 5885 5885 5884 5884 5884 5883 5883 5882 5882 5881 5880 5880 5879 5878 5877 5876 5876 5875 5874
5857 5858 5859 5861 5862 5863 5864 5866 5868 5869 5871 5872 5873 5875 5876 5877 5878 5879 5879 5880 5880 5881 5881 5881 5881 5881 5881 5881 5880 5880 5879 5878 5878 5877 5876 5876 5875 5874 5873 5872 5871 5870 5869
5851 5853 5854 5855 5856 5857 5859 5861 5863 5864 5866 5867 5868 5870 5871 5873 5874 5875 5875 5876 5877 5877 5877 5877 5877 5877 5877 5877 5876 5875 5875 5874 5873 5873 5872 5871 5870 5869 5868 5866 5865 5864 5863
5845 5846 5848 5849 5850 5852 5854 5856 5857 5859 5861 5862 5863 5865 5867 5868 5869 5870 5871 5872 5872 5873 5873 5873 5873 5873 5873 5872 5871 5871 5870 5869 5869 5867 5866 5865 5864 5863 5862 5860 5859 5857 5856
5838 5839 5841 5843 5844 5846 5848 5850 5852 5854 5855 5857 5858 5860 5861 5863 5864 5865 5866 5867 5868 5868 5868 5868 5868 5868 5868 5867 5866 5866 5865 5864 5863 5862 5861 5859 5858 5856 5855 5853 5852 5850 5848
5831 5832 5834 5836 5838 5841 5842 5844 5845 5847 5849 5851 5853 5854 5856 5858 5859 5860 5861 5862 5863 5863 5863 5863 5863 5863 5863 5862 5861 5860 5859 5858 5857 5856 5854 5853 5851 5849 5848 5846 5844 5842 5840
5824 5826 5827 5829 5831 5834 5836 5838 5839 5841 5843 5845 5847 5849 5850 5853 5854 5855 5856 5857 5857 5858 5858 5858 5857 5857 5857 5856 5855 5854 5853 5852 5850 5849 5847 5845 5844 5842 5840 5838 5835 5833 5831
5817 5818 5819 5822 5824 5827 5830 5832 5834 5835 5837 5839 5842 5843 5845 5847 5848 5849 5850 5851 5852 5852 5852 5852 5851 5851 5850 5849 5849 5848 5846 5845 5843 5841 5840 5838 5836 5833 5831 5829 5826 5824 5821
5809 5811 5812 5815 5817 5820 5823 5826 5828 5830 5832 5834 5836 5838 5839 5841 5843 5844 5844 5845 5846 5846 5845 5845 5845 5844 5844 5843 5842 5841 5839 5838 5836 5834 5832 5829 5827 5825 5822 5819 5817 5814 5811
5802 5804 5806 5808 5810 5813 5816 5819 5822 5824 5826 5828 5830 5832 5834 5836 5837 5838 5838 5839 5839 5839 5839 5839 5838 5837 5837 5836 5834 5833 5832 5830 5828 5826 5824 5821 5819 5816 5813 5810 5807 5804 5800
5796 5798 5800 5802 5804 5806 5810 5813 5815 5818 5820 5822 5824 5826 5828 5830 5831 5832 5832 5833 5833 5832 5832 5831 5831 5830 5829 5828 5827 5825 5824 5822 5820 5818 5815 5813 5810 5807 5803 5800 5796 5793 5789
5789 5792 5794 5796 5798 5800 5803 5806 5809 5811 5813 5816 5818 5820 5822 5823 5824 5825 5826 5826 5826 5825 5825 5824 5823 5823 5822 5821 5819 5818 5816 5814 5812 5809 5807 5804 5800 5797 5793 5790 5786 5782 5778
5783 5786 5788 5790 5792 5795 5797 5800 5802 5805 5807 5809 5812 5814 5815 5817 5818 5819 5819 5819 5819 5818 5818 5817 5816 5815 5814 5813 5811 5810 5808 5806 5803 5800 5797 5794 5791 5787 5783 5779 5775 5771 5767
5777 5780 5782 5784 5786 5789 5791 5794 5796 5799 5801 5803 5805 5807 5809 5810 5811 5812 5812 5812 5811 5811 5810 5810 5809 5808 5806 5805 5804 5802 5799 5797 5794 5791 5788 5784 5781 5777 5773 5769 5764 5760 5756
5771 5774 5775 5778 5781 5783 5785 5788 5790 5792 5795 5797 5799 5801 5803 5803 5804 5805 5805 5805 5805 5804 5803 5802 5802 5800 5799 5797 5796 5793 5791 5788 5785 5782 5779 5775 5771 5767 5763 5758 5754 5750 5745
5766 5768 5770 5773 5775 5777 5780 5783 5785 5787 5789 5791 5793 5794 5796 5797 5797 5798 5798 5798 5798 5798 5797 5795 5794 5793 5791 5790 5787 5785 5782 5780 5777 5773 5769 5765 5761 5757 5753 5749 5744 5740 5736
5760 5762 5764 5767 5769 5771 5774 5777 5779 5781 5783 5785 5786 5788 5789 5790 5790 5791 5791 5791 5791 5790 5789 5788 5787 5785 5783 5781 5779 5776 5774 5771 5767 5764 5760 5756 5752 5748 5744 5740 5736 5732 5728
5755 5757 5759 5761 5764 5766 5768 5771 5773 5775 5777 5779 5780 5781 5782 5783 5784 5784 5784 5784 5784 5783 5782 5781 5779 5777 5775 5773 5770 5768 5765 5762 5758 5755 5751 5747 5743 5739 5735 5732 5728 5724 5720
5749 5752 5754 5756 5758 5760 5763 5765 5768 5769 5771 5773 5774 5776 5776 5777 5778 5778 5778 5778 5777 5776 5775 5773 5772 5769 5767 5765 5762 5759 5756 5753 5749 5746 5742 5738 5735 5731 5728 5724 5720 5717 5713
5744 5746 5749 5751 5753 5755 5757 5760 5762 5764 5765 5767 5769 5770 5770 5771 5771 5771 5771 5770 5770 5768 5767 5765 5763 5761 5759 5756 5753 5750 5747 5744 5741 5737 5734 5730 5727 5724 5720 5717 5714 5711 5707
5739 5741 5744 5746 5748 5751 5752 5754 5756 5758 5760 5762 5763 5763 5764 5764 5764 5764 5764 5763 5762 5761 5759 5757 5755 5753 5750 5748 5745 5742 5739 5736 5732 5729 5726 5723 5720 5717 5714 5711 5708 5704 5701
5734 5736 5739 5741 5743 5745 5747 5749 5751 5753 5754 5755 5756 5757 5758 5758 5758 5757 5756 5755 5754 5753 5751 5749 5747 5745 5742 5740 5737 5734 5731 5728 5725 5722 5719 5716 5714 5711 5708 5705 5702 5699 5696
5729 5731 5734 5736 5738 5740 5742 5744 5746 5747 5748 5749 5750 5751 5751 5751 5751 5750 5749 5748 5747 5745 5744 5742 5740 5737 5735 5732 5730 5727 5724 5721 5719 5716 5713 5711 5708 5706 5703 5700 5697 5694 5692
5725 5726 5729 5731 5733 5735 5737 5739 5740 5742 5743 5744 5744 5744 5744 5744 5743 5743 5742 5741 5739 5738 5736 5734 5732 5730 5727 5725 5723 5721 5718 5715 5713 5711 5708 5706 5703 5701 5698 5695 5693 5690 5688
5721 5723 5725 5727 5729 5731 5732 5734 5735 5736 5737 5737 5738 5738 5738 5738 5737 5736 5735 5733 5732 5730 5729 5727 5725 5723 5720 5718 5716 5715 5712 5710 5708 5706 5703 5701 5699 5696 5694 5692 5689 5687 5684
5718 5720 5722 5724 5725 5726 5728 5729 5730 5731 5731 5732 5732 5732 5732 5731 5730 5729 5728 5726 5725 5724 5722 5720 5718 5716 5714 5713 5711 5709 5707 5705 5703 5701 5699 5697 5695 5693 5691 5689 5686 5684 5682